#timestamp,LO_Frequency,Hit,StdDev 
1676026815.7,286047028.0,N
1676026835.5,286047022.9,N
1676026855.4,286047021.0,N
1676026875.2,286047026.0,N
1676026895.0,286047033.8,Y
1676026895.9,286047033.8,P
1676026915.8,286047004.8,N
1676026935.6,286047005.9,N
1676026955.4,286046998.9,N
1676026975.3,286047002.7,N
1676026995.1,286047004.6,N
1676027015.9,286047010.6,N
1676027035.7,286047007.1,N
1676027055.5,286047003.6,N
1676027075.4,286047002.8,N
1676027095.2,286047003.2,N
1676027115.0,286047016.6,N
1676027115.9,286047016.6,N
1676027135.8,286047024.7,N
1676027155.6,286047029.0,N
1676027175.5,286047029.9,N
1676027195.3,286047034.5,Y
1676027215.1,286047014.5,P
1676027235.9,286047005.2,P
1676027255.7,286046998.9,N
1676027275.6,286047003.7,N
1676027295.4,286047009.2,N
1676027315.2,286047020.1,Y
1676027335.1,286047014.3,P
1676027336.0,286047014.3,P
1676027355.8,286047015.2,P
1676027375.6,286047011.5,Y
1676027395.5,286046998.0,P
1676027415.3,286047001.7,N
1676027435.2,286047002.3,N
1676027455.9,286046995.7,N
1676027475.7,286046989.9,N
1676027495.6,286046980.1,N
1676027515.4,286046972.4,N
1676027535.2,286046962.7,Y
1676027555.1,286046968.2,P
1676027556.0,286046968.2,N
1676027575.8,286046965.5,N
1676027595.7,286046968.0,N
1676027615.5,286046964.3,Y
1676027635.3,286046984.7,P
1676027655.2,286046981.3,P
1676027675.0,286046968.7,P
1676027675.9,286046968.7,Y
1676027695.8,286046980.0,P
1676027715.6,286046969.0,P
1676027735.4,286046959.5,P
1676027755.3,286046949.9,Y
1676027775.1,286046969.0,P
1676027795.8,286046958.3,P
1676027815.7,286046954.3,P
1676027835.5,286046957.0,Y
1676027855.4,286046988.5,P
1676027875.2,286046987.4,N
1676027895.0,286046988.9,N
1676027895.9,286046988.9,N
1676027915.8,286046996.0,N
1676027935.6,286046994.0,N
1676027955.4,286046999.5,N
1676027975.3,286046991.5,N
1676027995.1,286046995.3,N
1676028015.9,286046997.0,N
1676028035.7,286046991.7,N
1676028055.5,286047004.5,N
1676028075.4,286047021.1,N
1676028095.2,286047039.1,Y
1676028115.0,286047061.1,P
1676028115.9,286047061.1,N
1676028135.8,286047057.2,N
1676028155.6,286047050.4,N
1676028175.5,286047040.8,N
1676028195.3,286047032.7,N
1676028215.1,286047026.7,N
1676028235.9,286047019.4,N
1676028255.7,286047010.8,N
1676028275.5,286046998.1,N
1676028295.4,286046991.6,N
1676028315.2,286046981.1,N
1676028335.0,286046974.3,N
1676028336.0,286046974.3,N
1676028355.8,286046967.7,N
1676028375.6,286046970.6,N
1676028395.5,286046972.8,N
1676028415.3,286046977.3,N
1676028435.1,286046994.3,N
1676028455.9,286046999.9,N
1676028475.7,286047009.7,N
1676028495.6,286047008.2,N
1676028515.4,286047003.6,N
1676028535.2,286046993.1,N
1676028555.1,286046986.1,N
1676028556.0,286046986.1,N
1676028575.8,286046984.5,N
1676028595.7,286046983.5,N
1676028615.5,286046974.6,N
1676028635.3,286046977.4,N
1676028655.2,286046979.6,N
1676028675.0,286046983.0,N
1676028675.9,286046983.0,N
1676028695.7,286046977.9,N
1676028715.6,286046983.6,N
1676028735.4,286046983.0,N
1676028755.3,286046977.4,N
1676028775.1,286046982.9,N
1676028776.0,286046982.9,N
1676028795.8,286047007.1,N
1676028815.7,286047009.5,N
1676028835.5,286047016.6,N
1676028855.4,286047014.1,N
1676028875.2,286047022.7,N
1676028895.0,286047031.6,N
1676028895.9,286047031.6,N
1676028915.8,286047035.6,N
1676028935.6,286047033.1,N
1676028955.4,286047029.2,N
1676028975.3,286047022.9,N
1676028995.1,286047017.7,N
1676029015.9,286047023.9,N
1676029035.7,286047039.8,N
1676029055.5,286047052.6,N
1676029075.4,286047055.6,N
1676029095.2,286047056.8,N
1676029115.1,286047053.1,N
1676029116.0,286047053.1,N
1676029135.8,286047041.7,N
1676029155.6,286047035.2,N
1676029175.5,286047020.9,N
1676029195.3,286047024.7,N
1676029215.1,286047021.7,N
1676029235.9,286047007.3,N
1676029255.7,286046993.4,N
1676029275.6,286046996.9,N
1676029295.4,286047010.3,N
1676029315.2,286047020.1,N
1676029335.1,286047031.2,N
1676029336.0,286047031.2,N
1676029355.8,286047045.0,N
1676029375.7,286047051.0,Y
1676029395.5,286047032.5,P
1676029415.3,286047040.5,P
1676029435.2,286047045.3,P
1676029455.9,286047049.0,Y
1676029475.7,286047001.6,P
1676029495.6,286046987.2,N
1676029515.4,286046983.3,N
1676029535.3,286046986.8,N
1676029555.1,286046988.6,N
1676029556.0,286046988.6,N
1676029575.8,286046994.8,N
1676029595.7,286046995.3,N
1676029615.5,286046984.9,N
1676029635.3,286046970.6,N
1676029655.2,286046957.9,N
1676029675.0,286046942.8,Y
1676029675.9,286046942.8,P
1676029695.8,286046942.8,N
1676029715.6,286046939.6,N
1676029735.4,286046931.8,Y
1676029755.3,286046967.8,P
1676029775.1,286046959.8,P
1676029795.8,286046959.2,P
1676029815.7,286046958.4,Y
1676029835.5,286047000.1,P
1676029855.4,286046993.6,N
1676029875.2,286046989.0,N
1676029895.0,286046984.2,N
1676029895.9,286046984.2,N
1676029915.8,286046989.5,N
1676029935.6,286046982.2,N
1676029955.5,286046986.4,N
1676029975.3,286046995.4,N
1676029995.1,286046992.5,N
1676030015.9,286046991.6,N
1676030035.7,286046983.5,N
1676030055.5,286046986.3,N
1676030075.4,286046982.8,N
1676030095.2,286046984.7,N
1676030115.0,286046980.9,N
1676030116.0,286046980.9,N
1676030135.8,286046985.5,N
1676030155.6,286046987.5,N
1676030175.5,286046986.8,N
1676030195.3,286046975.7,Y
1676030215.1,286046986.3,P
1676030235.9,286046979.1,P
1676030255.7,286046988.1,P
1676030275.6,286047001.8,N
1676030295.4,286047006.4,N
1676030315.2,286047023.5,N
1676030335.1,286047029.3,N
1676030336.0,286047029.3,N
1676030355.8,286047049.2,N
1676030375.6,286047048.6,N
1676030395.5,286047048.2,N
